Location: Altenst�hlen
(53.5567°N, 8.9425°E)
Time: 00:48:39
(UTC+00:00)

Cosmos 2263 Rocket - Pass Details

Date: 23 October 2019
Orbit: 825 x 847 km, 71.0° (Epoch: 12 November)

Event Time Altitude Azimuth Distance (km) Brightness Sun altitude
Rises 16:39:31 0° 251° (WSW) 3,396 8.0 -5.0°
Reaches altitude 10° 16:42:18 10° 263° (W) 2,461 6.5 -5.4°
Maximum altitude 16:47:09 29° 322° (NW) 1,513 3.9 -6.1°
Drops below altitude 10° 16:52:00 10° 22° (NNE) 2,457 4.3 -6.8°
Sets 16:54:48 0° 34° (NNE) 3,390 4.9 -7.2°
